Location: Newark
(51.6497°N, 3.9164°E)
Time: 16:58:33
(UTC+00:00)

ISS - Visible Passes

Search period start: 30 September 2020 00:00
Search period end: 10 October 2020 00:00
Orbit: 419 x 421 km, 51.6° (Epoch: 01 October)

Date Brightness Start Highest point End Pass type
(mag) Time Alt. Az. Time Alt. Az. Time Alt. Az.
30 Sep -3.7 18:15:00 10° W 18:18:23 82° SSW 18:21:09 15° ESE visible
30 Sep -2.0 19:51:56 10° W 19:54:07 27° WSW 19:54:07 27° WSW visible
01 Oct -2.9 19:04:34 10° W 19:07:47 42° SSW 19:08:40 34° SSE visible
02 Oct -3.3 18:17:14 10° W 18:20:33 55° SSW 18:23:16 14° SE visible
02 Oct -1.2 19:54:42 10° W 19:56:14 15° SW 19:56:14 15° SW visible
03 Oct -1.8 19:07:01 10° W 19:09:44 23° SW 19:10:53 19° S visible
04 Oct -2.2 18:19:31 10° W 18:22:34 31° SSW 18:25:35 10° SE visible
05 Oct -0.8 19:10:33 10° WSW 19:11:29 11° SW 19:12:23 10° SSW visible
06 Oct -1.0 18:22:13 10° WSW 18:24:22 16° SW 18:26:30 10° S visible
09 Oct -0.5 17:37:59 10° WSW 17:38:50 11° SW 17:39:41 10° SSW visible
